This is the latest recevied weather packets stored in our database for station/object AI5KP-13. If no packets are shown the sender has not sent any weather packets the latest 10 day(s).
| Time | Temp. | Humidity | Pressure | Rain* | Wind** | Luminosity | Snow |
|---|---|---|---|---|---|---|---|
| 1777995247 | 21.67° C | 81% | 1003.9 hPa | 0 mm | - | 500 W/m² | - |
| 1777994944 | 21.11° C | 81% | 1004 hPa | 0 mm | - | 512 W/m² | - |
| 1777994642 | 21.11° C | 81% | 1003.9 hPa | 0 mm | - | 487 W/m² | - |
| 1777994341 | 21.11° C | 81% | 1003.9 hPa | 0 mm | - | 469 W/m² | - |
| 1777994038 | 20.56° C | 83% | 1004 hPa | 0 mm | - | 461 W/m² | - |
| 1777993729 | 20° C | 84% | 1003.9 hPa | 0 mm | - | 308 W/m² | - |
| 1777993427 | 20° C | 84% | 1004.1 hPa | 0 mm | - | 244 W/m² | - |
| 1777993126 | 20° C | 85% | 1004 hPa | 0 mm | - | 247 W/m² | - |
| 1777992825 | 20° C | 85% | 1004.2 hPa | 0 mm | - | 254 W/m² | - |
| 1777992522 | 20° C | 85% | 1004.1 hPa | 0 mm | - | 243 W/m² | - |
| 1777992221 | 20° C | 85% | 1004.3 hPa | 0 mm | - | 234 W/m² | - |
| 1777991917 | 20° C | 85% | 1004.5 hPa | 0 mm | - | 225 W/m² | - |
| 1777991615 | 20° C | 85% | 1004.6 hPa | 0 mm | - | 228 W/m² | - |
| 1777991312 | 19.44° C | 86% | 1004.6 hPa | 0 mm | - | 202 W/m² | - |
| 1777991009 | 19.44° C | 86% | 1004.7 hPa | 0 mm | - | 178 W/m² | - |
| 1777990706 | 19.44° C | 86% | 1004.7 hPa | 0 mm | - | 176 W/m² | - |
| 1777990404 | 19.44° C | 87% | 1004.9 hPa | 0 mm | - | 167 W/m² | - |
| 1777989796 | 18.89° C | 88% | 1004.7 hPa | 0 mm | - | 127 W/m² | - |
| 1777989494 | 18.89° C | 87% | 1004.9 hPa | 0 mm | - | 114 W/m² | - |
| 1777989190 | 18.89° C | 88% | 1005 hPa | 0 mm | - | 97 W/m² | - |
| 1777988886 | 18.89° C | 88% | 1005 hPa | 0 mm | - | 81 W/m² | - |
| 1777988583 | 18.89° C | 88% | 1005 hPa | 0 mm | - | 103 W/m² | - |
| 1777988280 | 18.33° C | 89% | 1004.7 hPa | 0 mm | - | 100 W/m² | - |
| 1777987976 | 18.33° C | 89% | 1004.9 hPa | 0 mm | - | 101 W/m² | - |
| 1777987672 | 18.33° C | 89% | 1004.9 hPa | 0 mm | - | 83 W/m² | - |
* Rain latest hour (hover to see other rain measurements)
** Current wind speed in m/s (hover to see current wind gust speed)